Miscellaneous Local Product
Issued by NWS Hastings, NE

Home | Current Version | Previous Version | Graphics & Text | Print | Product List | Glossary On
Versions: 1 2 3 4 5 6 7 8 9 10 11 12 13 14 15 16 17 18 19 20 21 22 23 24 25 26 27 28 29 30 31 32 33 34 35 36 37 38 39 40 41 42 43 44 45 46 47 48 49 50
000
AXUS43 KGID 161602
MISGRI

GID CWA HOURLY WEATHER ROUNDUP
NATIONAL WEATHER SERVICE HASTINGS NE
1100 AM CDT THU APR 16 2015

NOTE: "FAIR" INDICATES FEW OR NO CLOUDS BELOW 12,000 FEET WITH NO
SIGNIFICANT WEATHER AND/OR OBSTRUCTIONS TO VISIBILITY.

...SOUTH CENTRAL NEBRASKA...

CITY           SKY/WX    TMP DP  RH WIND       PRES   REMARKS
GRAND ISLAND   CLOUDY    56  52  86 E5        30.07R
HASTINGS       CLOUDY    57  54  89 VRB3      30.04R
KEARNEY        CLOUDY    54  52  94 E7        30.06R VSB 3/4
ORD            CLOUDY    54  52  93 E6        30.07R FOG
YORK           CLOUDY    59  54  82 S6        30.06S
AURORA         CLOUDY    56  55  94 SE7       30.06R
LEXINGTON      CLOUDY    56  55  95 NE7       30.05S FOG
HOLDREGE       FOG       54  53  97 E10       30.04R VSB 1/4
HEBRON         LGT RAIN  60  53  78 S8        30.06R

...NEBRASKA PANHANDLE...

CITY           SKY/WX    TMP DP  RH WIND       PRES   REMARKS
CHADRON        CLOUDY    49  40  71 NW9       30.17S
ALLIANCE       CLOUDY    43  39  86 N18       30.13R
SCOTTSBLUFF    CLOUDY    43  39  86 NW9       30.14S
SIDNEY         CLOUDY    41  37  86 N18       30.11S

...WESTERN AND NORTH CENTRAL NEBRASKA...

CITY           SKY/WX    TMP DP  RH WIND       PRES   REMARKS
VALENTINE      PTSUNNY   54  39  57 NW13      30.11S
AINSWORTH      CLOUDY    54  42  64 N8        30.10R
ONEILL         CLOUDY    55  52  88 W6        30.09R FOG
BROKEN BOW     LGT RAIN  57  50  77 N12       30.06R
IMPERIAL       LGT RAIN  48  46  93 N16       30.06S FOG
NORTH PLATTE   CLOUDY    52  49  89 N13       30.08R
MCCOOK         CLOUDY    53  52  96 NE10      30.04R FOG

...EASTERN NEBRASKA...

CITY           SKY/WX    TMP DP  RH WIND       PRES   REMARKS
NORFOLK        NOT AVBL
SO SIOUX CITY  PTSUNNY   63  49  60 VRB3      30.07S
TEKAMAH        SUNNY     63  50  62 VRB5      30.06S
COLUMBUS       SUNNY     61  48  63 SE3       30.09R
ALBION         MOSUNNY   59  50  73 CALM      30.07R
OMAHA EPPLEY   MOSUNNY   64  51  62 S8        30.07R
OFFUTT AFB     PTSUNNY   63  52  66 S3        30.07R
MILLARD        PTSUNNY   64  52  65 E3        30.07R
LINCOLN        SUNNY     63  52  67 VRB3      30.06S
NEBRASKA CITY  SUNNY     64  50  60 S3        30.07R
BEATRICE       MOSUNNY   62  55  75 E5        30.04S
FALLS CITY     MOSUNNY   66  54  65 S9        30.06R

...NORTHERN KANSAS...

CITY           SKY/WX    TMP DP  RH WIND       PRES   REMARKS
GOODLAND       FOG       47  47 100 N13       30.04R VSB 1
HILL CITY      PTSUNNY   61  51  70 E5        30.01R
NORTON         CLOUDY    55  48  76 E6        30.02R
PHILLIPSBURG   CLOUDY    63  54  72 E8        30.01R
SMITH CENTER   CLOUDY    57  54  88 E15       30.03R
BELOIT         PTSUNNY   57  52  82 E8        30.01S
HAYS           MOSUNNY   61  46  59 E12       30.01R
RUSSELL        PTSUNNY   57  53  86 SE10      29.99R
CONCORDIA      CLOUDY    62  55  77 SE15      30.03F
SALINA         PTSUNNY   68  55  63 S10       30.03R
TOPEKA         SUNNY     65  57  75 S8        30.07R



USA.gov is the U.S. government's official web portal to all federal, state and local government web resources and services.